Wind_Speed
28 32 37 42 43 45 45 40 40 45 45 41 40 34 28 26 25 23 26 29 28 30 15 19 13 13 20 16 9 7 9 8 8 11 15 16 15 15 17 17 17 18 22
31 36 39 42 44 41 36 39 42 47 45 39 31 27 26 29 24 21 27 26 29 23 18 20 12 14 20 14 12 12 10 9 8 11 10 14 15 15 16 16 16 14 19
35 38 42 42 38 34 36 40 45 45 38 30 21 18 20 23 26 24 28 28 22 25 19 23 14 13 19 17 9 8 11 12 10 8 6 12 15 12 15 15 15 14 14
37 40 41 39 33 35 36 42 38 35 29 25 15 13 12 16 20 23 24 27 27 30 22 23 17 21 15 13 5 6 9 12 8 7 8 11 10 9 12 17 17 12 11
38 41 41 32 24 33 36 36 32 26 20 22 20 16 14 15 19 23 24 29 34 26 29 29 21 16 19 18 11 7 6 9 8 3 6 9 7 7 9 10 13 14 10
37 36 36 27 27 32 33 28 26 22 21 24 23 19 15 13 16 20 24 27 29 28 31 32 29 21 17 21 18 6 7 10 10 8 12 9 5 4 6 8 6 11 14
35 34 31 21 26 30 20 24 24 24 23 23 21 18 14 9 21 19 22 27 30 28 30 31 28 27 20 23 21 14 9 10 12 16 16 10 4 2 1 0 6 6 9
37 33 25 17 23 22 18 21 22 21 21 26 29 25 14 10 13 20 23 22 27 30 34 30 27 28 26 26 22 17 18 13 14 16 16 10 6 3 3 0 3 4 7
34 28 20 16 17 26 16 17 17 17 19 22 25 27 26 14 8 14 22 19 21 27 28 31 28 29 27 31 24 21 21 13 10 19 17 12 7 5 6 3 3 6 7
31 26 14 14 18 22 16 15 14 15 17 22 24 25 26 22 15 3 14 24 24 25 28 37 31 33 24 26 24 24 23 13 9 16 15 12 8 5 7 3 3 3 2
28 20 11 12 18 16 15 19 12 15 16 19 21 22 22 22 19 15 6 17 28 28 28 31 29 32 29 25 22 17 20 14 15 13 11 14 12 9 6 4 7 4 6
27 14 9 16 15 10 16 13 8 11 14 19 26 28 23 17 16 15 13 7 13 31 31 36 32 27 28 31 25 21 19 19 16 14 11 9 13 7 2 4 10 10 10
22 12 12 14 18 7 10 11 9 8 12 18 20 22 28 28 18 13 14 12 6 7 31 36 37 31 30 31 29 23 22 24 21 16 10 12 11 16 14 6 11 11 13
19 13 16 14 12 7 17 13 11 12 18 19 17 19 17 23 23 18 10 7 9 6 14 36 35 31 31 25 24 24 23 22 26 22 16 15 15 13 13 9 8 10 15
16 12 13 11 6 11 13 11 15 14 17 20 22 25 18 20 20 19 12 5 8 9 3 21 38 36 25 24 22 27 24 26 24 24 23 16 15 15 16 15 13 13 17
16 12 15 16 13 13 14 11 20 17 17 23 16 19 22 24 20 14 10 6 7 6 4 8 17 18 22 28 26 29 30 29 29 30 27 24 22 18 17 17 15 17 18
16 12 15 18 12 8 9 16 17 12 16 17 14 25 24 21 19 19 9 8 10 6 12 10 13 25 18 22 25 24 31 35 32 35 30 28 26 27 22 20 15 18 20
16 11 17 8 5 11 17 19 19 21 25 24 20 20 24 23 21 16 15 15 16 15 11 18 17 23 34 29 24 21 23 35 36 35 30 28 29 26 27 24 21 15 22
17 13 22 14 12 17 21 18 16 32 15 26 26 17 20 22 23 18 16 17 17 14 19 15 15 21 29 30 29 28 30 30 40 39 35 35 31 30 29 27 23 21 21
16 17 26 15 28 33 29 23 23 20 8 23 21 18 20 23 20 20 19 20 17 20 19 20 17 18 25 31 32 35 35 32 36 37 37 34 35 33 34 33 26 22 23
20 24 36 21 14 32 26 21 11 6 22 12 29 25 25 23 22 25 24 18 17 20 19 19 23 24 25 28 27 23 27 33 30 26 42 44 41 36 31 32 28 26 28
24 30 40 31 16 16 7 18 8 13 14 21 26 26 27 23 24 32 35 27 19 23 21 20 22 27 27 28 23 14 35 35 35 34 33 35 48 46 44 40 36 37 32
26 34 37 36 29 22 19 16 12 25 26 26 26 26 30 27 31 37 37 27 19 19 21 20 21 22 29 32 36 37 36 32 36 36 31 32 38 40 48 47 41 36 41
23 35 39 44 34 23 32 25 26 31 28 25 26 29 35 32 32 41 38 22 19 18 17 19 22 23 27 31 37 39 39 31 30 33 31 29 31 37 42 38 39 39 37
20 32 39 46 44 33 27 34 32 30 28 35 37 38 31 31 37 39 29 18 20 18 18 19 21 24 25 29 31 36 30 23 22 25 31 28 31 33 45 46 37 32 37
21 25 38 43 48 40 38 27 42 35 32 35 36 30 33 30 41 42 22 17 19 19 18 15 20 21 20 24 27 32 33 26 23 21 23 23 27 31 33 40 41 42 42
Wind_Direction
305 311 317 317 316 314 312 314 316 315 313 308 303 290 277 266 256 242 235 232 229 219 209 214 216 224 246 217 218 229 247 275 292 327 14 14 15 19 29 32 38 58 76
314 320 320 319 318 316 326 322 317 316 316 314 312 286 265 249 240 231 226 224 221 225 235 215 205 226 227 217 217 238 242 270 290 311 340 0 5 22 23 37 37 51 81
319 321 321 319 318 328 325 320 318 320 326 322 311 285 273 262 231 230 226 219 204 203 217 214 210 213 227 248 223 229 239 247 268 309 330 347 352 13 29 42 41 39 75
316 322 322 320 329 329 323 325 329 331 334 332 312 287 274 263 231 221 226 222 204 213 213 193 213 203 221 219 217 238 257 239 245 288 262 332 350 18 40 49 40 42 56
324 325 321 326 323 330 328 332 337 339 349 346 332 311 277 257 229 226 225 224 216 218 200 203 189 198 207 220 243 237 247 231 214 239 234 318 344 14 47 48 38 47 47
326 320 321 328 321 326 327 345 351 352 353 352 346 337 326 237 220 225 226 216 220 220 205 210 191 204 211 223 220 220 214 214 233 237 253 281 314 351 33 18 41 47 52
329 327 324 326 323 327 344 1 12 21 20 8 360 349 328 288 233 230 227 236 221 218 205 207 194 185 205 223 229 224 249 223 221 241 247 257 261 291 38 7 354 20 35
329 325 323 319 326 341 359 9 24 33 38 32 29 21 349 294 260 240 240 232 223 221 209 219 208 191 188 212 223 236 271 231 207 245 266 263 210 231 225 103 349 16 14
329 326 328 314 323 337 357 20 33 28 29 22 20 23 27 16 270 242 229 228 214 212 214 209 215 199 199 201 211 241 246 216 200 230 261 248 219 225 229 237 39 63 36
331 328 334 314 318 334 25 24 26 22 18 37 20 22 25 36 36 323 229 222 217 223 216 216 217 212 196 196 199 226 216 213 228 234 240 248 202 221 226 201 147 144 331
329 324 316 301 313 330 359 359 42 63 41 36 34 24 21 32 41 48 72 221 228 226 222 218 213 224 216 207 191 223 222 214 211 215 204 218 195 198 172 196 196 233 287
320 311 287 296 315 318 349 356 31 51 47 42 36 37 28 31 34 43 47 65 224 231 224 208 210 214 223 211 218 230 228 213 211 219 210 216 233 218 235 246 250 254 277
310 286 268 287 309 314 0 340 352 44 28 19 11 18 29 29 21 22 19 21 21 222 224 210 212 224 229 228 236 233 225 227 215 219 225 202 199 250 251 278 276 257 274
295 269 272 298 296 333 333 327 344 10 6 6 7 7 13 20 19 15 5 6 18 6 215 210 215 224 229 225 219 227 226 227 224 219 215 214 214 229 251 253 258 255 267
281 264 259 284 236 321 321 326 353 347 349 7 3 358 1 7 3 9 17 334 340 347 132 214 216 220 218 230 235 230 225 224 231 234 230 221 216 236 251 257 263 253 258
276 272 242 250 249 277 301 305 325 321 332 346 351 349 347 344 350 348 357 341 281 262 260 223 216 211 223 237 248 239 230 229 240 235 237 243 242 239 244 252 263 267 259
264 258 233 222 248 268 281 293 294 301 314 333 321 328 333 337 334 331 326 339 316 289 224 202 220 212 220 241 241 245 236 231 234 240 236 240 239 242 242 245 259 268 255
255 238 225 205 250 310 297 299 323 322 298 302 304 304 319 321 327 331 313 323 309 289 257 239 216 226 234 249 241 249 255 242 230 238 240 237 236 240 246 247 250 260 244
244 224 179 199 228 240 260 269 309 329 316 298 294 293 308 314 331 337 330 311 295 262 275 268 261 236 230 248 259 258 266 261 243 244 242 236 242 241 246 240 246 251 250
235 209 171 160 252 246 253 245 268 290 326 293 297 314 324 321 331 329 326 319 297 273 274 277 264 259 235 236 241 245 254 256 243 243 242 239 239 244 245 243 244 251 257
230 208 181 210 264 239 258 250 241 326 302 268 304 314 314 313 323 327 318 304 282 271 264 262 255 256 243 231 243 255 264 250 244 251 242 240 243 245 242 240 240 250 253
218 211 198 210 245 224 246 189 305 235 248 277 298 302 308 307 316 321 318 302 282 260 251 248 251 248 247 237 247 261 265 255 252 254 252 241 245 245 247 247 250 258 258
214 218 203 202 216 220 193 202 225 208 231 260 284 302 311 310 312 319 313 300 275 262 256 245 248 252 245 236 236 235 250 257 250 250 254 248 245 248 242 246 246 249 255
222 221 203 204 201 208 214 196 212 226 233 252 280 291 305 299 310 311 306 281 263 259 256 251 255 259 254 250 243 243 248 252 249 245 248 249 241 240 225 232 238 245 252
241 213 212 203 199 207 216 230 225 234 246 254 268 287 297 303 318 313 303 273 265 259 262 266 272 267 258 254 251 247 241 245 247 253 247 252 239 239 225 226 240 243 248
255 232 216 208 206 216 211 224 226 243 258 267 278 284 290 298 312 312 298 271 264 265 275 272 278 269 258 249 242 240 235 229 243 250 246 254 246 240 225 223 229 238 243
Height
11013 11010 11007 11002 10997 10992 10985 10978 10971 10966 10962 10959 10960 10958 10958 10959 10962 10967 10971 10975 10981 10983 10988 10991 10994 10996 11000 11000 11002 11002 11003 11004 11004 11004 11002 11001 11000 10999 10998 10997 10995 10993 10990
11009 11007 11002 10997 10992 10987 10980 10974 10968 10962 10957 10953 10952 10951 10952 10954 10958 10962 10966 10972 10977 10981 10986 10990 10993 10995 10997 10998 10999 11001 11002 11004 11004 11003 11003 11002 11001 11001 11000 10999 10997 10996 10993
11005 11002 10998 10992 10986 10981 10976 10971 10964 10958 10954 10948 10947 10948 10948 10950 10955 10960 10964 10969 10975 10978 10982 10987 10991 10994 10997 10998 10998 11000 11001 11003 11003 11003 11003 11002 11002 11002 11001 11000 10999 10998 10996
11002 10998 10993 10987 10981 10978 10972 10966 10960 10956 10952 10949 10946 10947 10948 10949 10952 10957 10962 10967 10973 10975 10978 10981 10987 10990 10993 10995 10996 10999 11000 11000 11002 11002 11003 11003 11003 11002 11001 11001 11000 10999 10998
10998 10994 10989 10983 10980 10975 10971 10964 10958 10955 10951 10948 10946 10946 10947 10949 10951 10955 10959 10963 10969 10972 10975 10977 10979 10985 10988 10991 10994 10996 10997 10999 11000 11002 11003 11003 11004 11004 11002 11001 11001 11000 10999
10994 10990 10984 10980 10977 10974 10969 10963 10957 10954 10951 10948 10946 10944 10944 10946 10950 10953 10956 10959 10965 10969 10971 10974 10977 10981 10985 10988 10989 10993 10994 10996 10998 11000 11002 11003 11003 11003 11002 11002 11002 11002 11001
10989 10985 10981 10979 10976 10973 10968 10963 10958 10954 10952 10950 10946 10943 10943 10944 10948 10950 10953 10956 10961 10965 10969 10972 10976 10978 10982 10985 10987 10989 10992 10994 10996 10999 11000 11002 11003 11003 11002 11002 11002 11002 11002
10986 10982 10979 10978 10975 10972 10968 10965 10960 10957 10955 10952 10949 10944 10942 10942 10944 10947 10949 10953 10957 10962 10968 10970 10975 10976 10977 10982 10984 10985 10990 10992 10996 10998 11001 11002 11002 11002 11002 11002 11002 11002 11001
10985 10980 10978 10977 10975 10972 10968 10965 10962 10960 10956 10954 10950 10947 10943 10940 10940 10943 10946 10951 10955 10958 10963 10967 10970 10972 10974 10976 10981 10983 10985 10990 10991 10995 10999 11000 11000 11000 11000 11001 11002 11002 11001
10981 10979 10977 10977 10976 10973 10969 10966 10963 10960 10958 10955 10953 10950 10947 10943 10942 10942 10944 10948 10952 10954 10958 10964 10967 10971 10973 10976 10978 10982 10984 10987 10989 10993 10995 10997 10998 10999 10999 11000 11000 11001 10999
10979 10977 10977 10977 10975 10973 10970 10966 10965 10962 10960 10956 10954 10951 10949 10947 10946 10945 10944 10945 10949 10953 10958 10961 10965 10968 10973 10977 10979 10982 10984 10985 10987 10989 10991 10995 10995 10996 10998 10999 10998 10999 10999
10977 10975 10975 10975 10974 10972 10970 10967 10965 10963 10961 10959 10957 10953 10950 10949 10949 10948 10948 10947 10948 10950 10954 10958 10962 10966 10970 10974 10978 10981 10985 10985 10985 10986 10988 10991 10995 10994 10996 10996 10998 10998 10999
10973 10972 10973 10973 10972 10972 10969 10967 10965 10963 10961 10959 10958 10956 10954 10951 10949 10949 10949 10949 10947 10946 10949 10956 10960 10962 10965 10971 10975 10978 10983 10984 10983 10985 10987 10988 10991 10994 10994 10994 10996 10996 10998
10970 10969 10970 10971 10972 10971 10968 10966 10963 10963 10961 10959 10957 10957 10956 10952 10952 10949 10951 10950 10948 10946 10945 10951 10956 10957 10960 10964 10968 10974 10978 10981 10982 10983 10985 10985 10987 10989 10991 10992 10995 10994 10995
10966 10967 10967 10968 10969 10968 10967 10965 10964 10962 10961 10960 10959 10959 10959 10956 10954 10952 10951 10950 10950 10950 10948 10949 10951 10954 10957 10959 10964 10968 10973 10976 10980 10981 10981 10982 10984 10986 10987 10989 10992 10991 10992
10959 10962 10964 10966 10968 10967 10967 10966 10964 10963 10962 10961 10958 10960 10960 10958 10956 10952 10950 10950 10951 10950 10951 10949 10950 10953 10953 10954 10958 10963 10966 10970 10972 10976 10977 10978 10981 10983 10985 10987 10988 10989 10989
10957 10957 10958 10962 10966 10965 10965 10963 10962 10963 10961 10961 10959 10958 10958 10957 10955 10951 10949 10950 10950 10948 10948 10948 10949 10952 10952 10951 10953 10956 10960 10963 10965 10968 10972 10973 10976 10979 10982 10983 10985 10985 10985
10952 10954 10952 10959 10962 10965 10965 10965 10964 10962 10960 10957 10958 10955 10955 10956 10953 10951 10947 10945 10948 10945 10945 10946 10948 10949 10948 10949 10950 10950 10953 10957 10960 10963 10964 10967 10971 10974 10978 10981 10980 10981 10981
10944 10947 10953 10959 10961 10956 10957 10959 10959 10956 10955 10956 10955 10952 10952 10951 10949 10947 10945 10942 10943 10943 10940 10942 10943 10943 10943 10946 10946 10946 10947 10951 10955 10958 10960 10960 10965 10968 10973 10975 10975 10977 10978
10939 10939 10946 10950 10951 10947 10948 10952 10953 10952 10946 10948 10948 10947 10946 10947 10945 10944 10941 10938 10937 10939 10937 10935 10935 10935 10937 10938 10938 10939 10940 10943 10946 10950 10953 10955 10957 10961 10965 10968 10969 10971 10974
10931 10935 10936 10937 10940 10938 10946 10949 10949 10946 10943 10943 10943 10941 10942 10943 10942 10940 10939 10936 10933 10932 10931 10930 10929 10928 10928 10929 10931 10934 10933 10935 10937 10941 10943 10949 10951 10956 10958 10961 10963 10965 10968
10924 10922 10927 10930 10935 10939 10944 10942 10943 10943 10942 10935 10938 10937 10938 10938 10937 10934 10931 10929 10926 10925 10923 10923 10922 10920 10922 10923 10926 10926 10927 10929 10930 10932 10935 10939 10944 10950 10955 10957 10958 10960 10962
10915 10914 10919 10923 10927 10934 10937 10935 10938 10940 10940 10937 10936 10934 10933 10932 10930 10928 10923 10919 10917 10916 10916 10915 10914 10914 10914 10916 10919 10918 10919 10919 10921 10926 10926 10930 10935 10941 10948 10949 10951 10954 10956
10910 10908 10912 10915 10920 10928 10929 10930 10933 10935 10935 10934 10931 10930 10930 10927 10924 10922 10916 10911 10910 10909 10909 10909 10907 10907 10907 10906 10909 10911 10911 10912 10914 10917 10920 10923 10926 10930 10935 10941 10944 10946 10949
10901 10905 10906 10910 10916 10920 10923 10925 10928 10929 10931 10929 10928 10926 10925 10922 10920 10916 10910 10906 10905 10903 10903 10904 10902 10900 10900 10899 10900 10902 10906 10907 10908 10912 10915 10918 10920 10922 10928 10933 10938 10940 10940
10896 10899 10903 10907 10910 10913 10918 10923 10925 10924 10924 10924 10924 10922 10920 10919 10916 10907 10903 10901 10901 10901 10900 10899 10898 10894 10893 10893 10894 10894 10899 10901 10903 10907 10909 10912 10913 10914 10917 10922 10927 10929 10932